Time,TemperatureF,DewpointF,PressureIn,WindDirection,WindDirectionDegrees,WindSpeedMPH,WindSpeedGustMPH,Humidity,HourlyPrecipIn,Conditions,Clouds,dailyrainin,SoftwareType,DateUTC
2013-03-25 00:05:00,37.4,30.5,29.72,West,270,4.5,6.9,68,0.00,,,0.00,fowsr,2013-03-25 04:05:00,
2013-03-25 00:10:00,37.4,30.5,29.73,NW,315,3.1,3.8,68,0.00,,,0.00,fowsr,2013-03-25 04:10:00,
2013-03-25 00:15:00,37.6,30.6,29.72,WNW,292,3.1,5.4,68,0.00,,,0.00,fowsr,2013-03-25 04:15:00,
2013-03-25 00:20:00,37.6,30.6,29.72,NW,315,5.4,10.7,68,0.00,,,0.00,fowsr,2013-03-25 04:20:00,
2013-03-25 00:25:00,37.8,30.8,29.72,West,270,7.6,11.4,68,0.00,,,0.00,fowsr,2013-03-25 04:25:00,
2013-03-25 00:30:00,37.4,30.7,29.72,West,270,4.5,7.6,69,0.00,,,0.00,fowsr,2013-03-25 04:30:00,
2013-03-25 00:35:00,37.0,29.9,29.71,West,270,3.8,5.4,67,0.00,,,0.00,fowsr,2013-03-25 04:35:00,
2013-03-25 00:40:00,36.7,30.0,29.71,West,270,3.1,6.0,69,0.00,,,0.00,fowsr,2013-03-25 04:40:00,
2013-03-25 00:45:00,36.5,30.1,29.70,NW,315,3.8,6.0,70,0.00,,,0.00,fowsr,2013-03-25 04:45:00,
2013-03-25 00:50:00,36.3,30.2,29.70,West,270,4.5,6.0,71,0.00,,,0.00,fowsr,2013-03-25 04:50:00,
2013-03-25 00:55:00,36.1,30.3,29.70,SW,225,0.7,1.6,72,0.00,,,0.00,fowsr,2013-03-25 04:55:00,
2013-03-25 01:00:00,36.1,30.5,29.69,NW,315,4.5,9.8,73,0.00,,,0.00,fowsr,2013-03-25 05:00:00,
2013-03-25 01:05:00,36.0,30.6,29.69,South,180,3.8,6.0,74,0.00,,,0.00,fowsr,2013-03-25 05:05:00,
2013-03-25 01:10:00,36.0,30.8,29.69,South,180,2.2,3.8,75,0.00,,,0.00,fowsr,2013-03-25 05:10:00,
2013-03-25 01:15:00,35.8,30.9,29.69,WSW,247,1.6,4.5,76,0.00,,,0.00,fowsr,2013-03-25 05:15:00,
2013-03-25 01:20:00,35.8,31.1,29.69,West,270,1.6,2.2,77,0.00,,,0.00,fowsr,2013-03-25 05:20:00,
2013-03-25 01:25:00,35.6,31.2,29.68,West,270,3.1,5.4,78,0.01,,,0.01,fowsr,2013-03-25 05:25:00,
2013-03-25 01:30:00,35.6,31.2,29.68,SW,225,3.1,4.5,78,0.01,,,0.01,fowsr,2013-03-25 05:30:00,
2013-03-25 01:35:00,35.6,31.4,29.68,NW,315,3.1,4.5,79,0.01,,,0.01,fowsr,2013-03-25 05:35:00,
2013-03-25 01:40:00,35.4,31.6,29.67,West,270,5.4,8.3,81,0.01,,,0.01,fowsr,2013-03-25 05:40:00,
2013-03-25 01:45:00,35.4,31.9,29.67,SW,225,2.2,4.5,82,0.01,,,0.01,fowsr,2013-03-25 05:45:00,
2013-03-25 01:50:00,35.2,31.7,29.67,SW,225,3.1,4.5,82,0.01,,,0.01,fowsr,2013-03-25 05:50:00,
2013-03-25 01:55:00,35.2,31.7,29.66,NW,315,3.8,4.5,82,0.01,,,0.01,fowsr,2013-03-25 05:55:00,
2013-03-25 02:00:00,35.2,31.7,29.66,SW,225,3.8,6.0,82,0.01,,,0.01,fowsr,2013-03-25 06:00:00,
2013-03-25 02:05:00,35.1,31.7,29.66,NW,315,3.1,6.9,83,0.01,,,0.01,fowsr,2013-03-25 06:05:00,
2013-03-25 02:10:00,35.1,31.7,29.65,SW,225,4.5,8.3,83,0.01,,,0.01,fowsr,2013-03-25 06:10:00,
2013-03-25 02:15:00,35.1,31.7,29.65,West,270,6.9,9.2,83,0.01,,,0.01,fowsr,2013-03-25 06:15:00,
2013-03-25 02:20:00,35.2,32.1,29.65,West,270,6.9,10.7,84,0.01,,,0.01,fowsr,2013-03-25 06:20:00,
2013-03-25 02:25:00,35.2,32.1,29.64,SW,225,3.8,8.3,84,0.01,,,0.01,fowsr,2013-03-25 06:25:00,
2013-03-25 02:30:00,35.2,32.1,29.64,SW,225,5.4,10.7,84,0.00,,,0.01,fowsr,2013-03-25 06:30:00,
2013-03-25 02:40:00,35.1,32.1,29.63,SW,225,9.8,16.8,85,0.01,,,0.02,fowsr,2013-03-25 06:40:00,
2013-03-25 02:45:00,35.1,32.1,29.62,NW,315,5.4,8.3,85,0.01,,,0.02,fowsr,2013-03-25 06:45:00,
2013-03-25 02:50:00,35.1,32.1,29.62,WSW,247,5.4,8.3,85,0.01,,,0.02,fowsr,2013-03-25 06:50:00,
2013-03-25 02:55:00,35.1,32.1,29.62,West,270,5.4,9.2,85,0.01,,,0.02,fowsr,2013-03-25 06:55:00,
2013-03-25 03:00:00,35.1,32.1,29.62,SW,225,3.1,6.9,85,0.01,,,0.02,fowsr,2013-03-25 07:00:00,
2013-03-25 03:10:00,35.2,32.3,29.62,West,270,3.8,6.9,85,0.01,,,0.02,fowsr,2013-03-25 07:10:00,
2013-03-25 03:15:00,35.4,32.5,29.61,SW,225,2.2,3.8,85,0.01,,,0.02,fowsr,2013-03-25 07:15:00,
2013-03-25 03:20:00,35.4,32.5,29.61,NW,315,3.1,9.2,85,0.01,,,0.02,fowsr,2013-03-25 07:20:00,
2013-03-25 03:25:00,35.4,32.3,29.61,NW,315,3.8,6.9,84,0.01,,,0.02,fowsr,2013-03-25 07:25:00,
2013-03-25 03:30:00,35.6,32.3,29.60,SW,225,6.9,12.1,83,0.01,,,0.02,fowsr,2013-03-25 07:30:00,
2013-03-25 03:35:00,35.8,32.4,29.60,West,270,4.5,7.6,83,0.00,,,0.02,fowsr,2013-03-25 07:35:00,
2013-03-25 03:40:00,36.0,32.6,29.60,West,270,3.8,6.0,83,0.00,,,0.02,fowsr,2013-03-25 07:40:00,
2013-03-25 03:45:00,36.0,32.6,29.59,SW,225,6.0,11.4,83,0.00,,,0.02,fowsr,2013-03-25 07:45:00,
2013-03-25 03:50:00,36.1,32.8,29.59,NNW,337,7.6,13.0,83,0.00,,,0.02,fowsr,2013-03-25 07:50:00,
2013-03-25 03:55:00,36.1,32.8,29.59,SW,225,4.5,6.9,83,0.00,,,0.02,fowsr,2013-03-25 07:55:00,
2013-03-25 04:00:00,36.3,33.0,29.59,South,180,6.0,9.2,83,0.00,,,0.02,fowsr,2013-03-25 08:00:00,
2013-03-25 04:05:00,36.5,33.1,29.58,NW,315,6.9,11.4,83,0.00,,,0.02,fowsr,2013-03-25 08:05:00,
2013-03-25 04:10:00,36.5,33.1,29.58,SW,225,4.5,9.2,83,0.00,,,0.02,fowsr,2013-03-25 08:10:00,
2013-03-25 04:15:00,36.7,33.1,29.58,SW,225,3.8,8.3,82,0.00,,,0.02,fowsr,2013-03-25 08:15:00,
2013-03-25 04:20:00,36.7,33.1,29.57,NNW,337,3.8,6.9,82,0.00,,,0.02,fowsr,2013-03-25 08:20:00,
2013-03-25 04:25:00,36.9,33.3,29.57,West,270,3.8,6.0,82,0.00,,,0.02,fowsr,2013-03-25 08:25:00,
2013-03-25 04:30:00,36.9,33.3,29.57,SW,225,3.8,6.9,82,0.00,,,0.02,fowsr,2013-03-25 08:30:00,
2013-03-25 04:35:00,37.0,33.4,29.57,SW,225,5.4,7.6,82,0.00,,,0.02,fowsr,2013-03-25 08:35:00,
2013-03-25 04:40:00,37.0,33.4,29.57,NW,315,3.8,6.0,82,0.00,,,0.02,fowsr,2013-03-25 08:40:00,
2013-03-25 04:45:00,37.0,33.4,29.57,WNW,292,3.1,3.8,82,0.00,,,0.02,fowsr,2013-03-25 08:45:00,
2013-03-25 04:50:00,37.2,33.6,29.57,West,270,5.4,6.9,82,0.00,,,0.02,fowsr,2013-03-25 08:50:00,
2013-03-25 04:55:00,37.4,34.6,29.57,SW,225,5.4,7.6,86,0.00,,,0.02,fowsr,2013-03-25 08:55:00,
2013-03-25 05:00:00,37.4,34.6,29.56,SW,225,4.5,5.4,86,0.00,,,0.02,fowsr,2013-03-25 09:00:00,
2013-03-25 05:10:00,37.4,34.6,29.56,West,270,3.1,6.9,86,0.00,,,0.02,fowsr,2013-03-25 09:10:00,
2013-03-25 05:15:00,37.4,34.6,29.55,West,270,5.4,7.6,86,0.01,,,0.04,fowsr,2013-03-25 09:15:00,
2013-03-25 05:20:00,37.6,35.0,29.55,West,270,5.4,7.6,87,0.01,,,0.04,fowsr,2013-03-25 09:20:00,
2013-03-25 05:25:00,37.6,35.0,29.55,NW,315,4.5,6.9,87,0.01,,,0.04,fowsr,2013-03-25 09:25:00,
2013-03-25 05:30:00,37.6,35.0,29.55,SW,225,3.8,6.0,87,0.02,,,0.05,fowsr,2013-03-25 09:30:00,
2013-03-25 05:35:00,37.6,35.0,29.55,West,270,3.8,6.9,87,0.02,,,0.05,fowsr,2013-03-25 09:35:00,
2013-03-25 05:45:00,37.8,35.4,29.55,SW,225,7.6,12.1,88,0.04,,,0.06,fowsr,2013-03-25 09:45:00,
2013-03-25 05:50:00,37.9,35.6,29.55,West,270,4.5,6.0,88,0.04,,,0.06,fowsr,2013-03-25 09:50:00,
2013-03-25 05:55:00,37.9,35.8,29.55,West,270,6.9,10.7,89,0.05,,,0.07,fowsr,2013-03-25 09:55:00,
2013-03-25 06:00:00,38.1,36.0,29.55,West,270,4.5,6.0,89,0.05,,,0.07,fowsr,2013-03-25 10:00:00,
2013-03-25 06:05:00,38.3,36.2,29.54,SW,225,6.0,9.8,89,0.06,,,0.08,fowsr,2013-03-25 10:05:00,
2013-03-25 06:10:00,38.3,36.2,29.54,South,180,5.4,9.2,89,0.06,,,0.08,fowsr,2013-03-25 10:10:00,
2013-03-25 06:15:00,38.5,36.5,29.54,SW,225,6.9,11.4,90,0.05,,,0.08,fowsr,2013-03-25 10:15:00,
2013-03-25 06:20:00,38.5,36.5,29.54,WSW,247,3.8,6.9,90,0.05,,,0.08,fowsr,2013-03-25 10:20:00,
2013-03-25 06:25:00,38.5,36.5,29.54,SW,225,5.4,9.2,90,0.06,,,0.09,fowsr,2013-03-25 10:25:00,
2013-03-25 06:30:00,38.3,36.2,29.54,South,180,5.4,13.0,89,0.06,,,0.09,fowsr,2013-03-25 10:30:00,
2013-03-25 06:35:00,38.1,36.0,29.55,SW,225,5.4,10.7,89,0.06,,,0.11,fowsr,2013-03-25 10:35:00,
2013-03-25 06:45:00,37.9,35.6,29.55,SW,225,3.8,7.6,88,0.06,,,0.12,fowsr,2013-03-25 10:45:00,
2013-03-25 06:50:00,37.9,35.6,29.55,South,180,6.9,10.7,88,0.06,,,0.12,fowsr,2013-03-25 10:50:00,
2013-03-25 06:55:00,37.9,35.6,29.55,West,270,7.6,12.1,88,0.07,,,0.13,fowsr,2013-03-25 10:55:00,
2013-03-25 07:05:00,37.8,35.6,29.55,South,180,4.5,6.9,89,0.07,,,0.14,fowsr,2013-03-25 11:05:00,
2013-03-25 07:10:00,37.8,35.6,29.56,SW,225,8.3,13.6,89,0.07,,,0.15,fowsr,2013-03-25 11:10:00,
2013-03-25 07:15:00,37.8,35.6,29.56,West,270,6.0,9.2,89,0.07,,,0.15,fowsr,2013-03-25 11:15:00,
2013-03-25 07:20:00,37.8,35.6,29.56,SW,225,3.8,6.0,89,0.08,,,0.17,fowsr,2013-03-25 11:20:00,
2013-03-25 07:25:00,37.8,35.6,29.55,SW,225,4.5,8.3,89,0.09,,,0.18,fowsr,2013-03-25 11:25:00,
2013-03-25 07:30:00,37.6,35.4,29.55,SW,225,6.0,8.3,89,0.08,,,0.18,fowsr,2013-03-25 11:30:00,
2013-03-25 07:35:00,37.4,35.3,29.55,SW,225,4.5,7.6,89,0.09,,,0.19,fowsr,2013-03-25 11:35:00,
2013-03-25 07:40:00,37.2,34.3,29.56,SW,225,3.1,6.9,85,0.08,,,0.19,fowsr,2013-03-25 11:40:00,
2013-03-25 07:45:00,37.2,34.3,29.55,SW,225,6.9,8.3,85,0.09,,,0.20,fowsr,2013-03-25 11:45:00,
2013-03-25 07:50:00,37.0,34.1,29.55,SW,225,7.6,13.0,85,0.09,,,0.21,fowsr,2013-03-25 11:50:00,
2013-03-25 07:55:00,36.7,33.5,29.55,South,180,6.9,11.4,84,0.08,,,0.21,fowsr,2013-03-25 11:55:00,
2013-03-25 08:00:00,36.1,33.0,29.55,WSW,247,5.4,11.4,84,0.09,,,0.22,fowsr,2013-03-25 12:00:00,
2013-03-25 08:05:00,35.6,32.5,29.55,WSW,247,3.8,9.2,84,0.09,,,0.24,fowsr,2013-03-25 12:05:00,
2013-03-25 08:10:00,35.4,32.5,29.55,SW,225,3.8,5.4,85,0.09,,,0.24,fowsr,2013-03-25 12:10:00,
2013-03-25 08:15:00,35.2,32.3,29.55,SW,225,4.5,6.0,85,0.08,,,0.24,fowsr,2013-03-25 12:15:00,
2013-03-25 08:20:00,34.9,32.0,29.54,SW,225,6.0,8.3,85,0.09,,,0.25,fowsr,2013-03-25 12:20:00,
2013-03-25 08:25:00,34.7,31.8,29.54,SW,225,6.0,8.3,85,0.08,,,0.25,fowsr,2013-03-25 12:25:00,
2013-03-25 08:30:00,34.7,31.8,29.54,South,180,4.5,7.6,85,0.07,,,0.25,fowsr,2013-03-25 12:30:00,
2013-03-25 08:40:00,34.5,31.6,29.53,SSW,202,7.6,10.7,85,0.07,,,0.26,fowsr,2013-03-25 12:40:00,
2013-03-25 08:45:00,34.5,31.8,29.53,South,180,7.6,10.7,86,0.07,,,0.26,fowsr,2013-03-25 12:45:00,
2013-03-25 08:50:00,34.3,31.6,29.53,SW,225,3.8,9.2,86,0.06,,,0.26,fowsr,2013-03-25 12:50:00,
2013-03-25 08:55:00,34.3,31.6,29.53,SW,225,4.5,7.6,86,0.06,,,0.27,fowsr,2013-03-25 12:55:00,
2013-03-25 09:00:00,34.3,31.6,29.52,SW,225,6.0,12.1,86,0.05,,,0.27,fowsr,2013-03-25 13:00:00,
2013-03-25 09:05:00,34.3,31.6,29.52,SW,225,5.4,7.6,86,0.05,,,0.27,fowsr,2013-03-25 13:05:00,
2013-03-25 09:10:00,34.3,31.6,29.52,South,180,5.4,6.9,86,0.04,,,0.27,fowsr,2013-03-25 13:10:00,
2013-03-25 09:20:00,34.3,31.6,29.51,WNW,292,5.4,9.2,86,0.02,,,0.27,fowsr,2013-03-25 13:20:00,
2013-03-25 09:25:00,34.3,31.6,29.51,East,90,5.4,11.4,86,0.02,,,0.27,fowsr,2013-03-25 13:25:00,
2013-03-25 09:30:00,34.5,31.8,29.51,NW,315,5.4,8.3,86,0.02,,,0.27,fowsr,2013-03-25 13:30:00,
2013-03-25 09:35:00,34.7,32.2,29.51,SW,225,3.1,5.4,87,0.04,,,0.28,fowsr,2013-03-25 13:35:00,
2013-03-25 09:40:00,34.7,32.2,29.51,SW,225,8.3,13.6,87,0.02,,,0.28,fowsr,2013-03-25 13:40:00,
2013-03-25 09:45:00,34.7,32.2,29.51,South,180,6.0,9.2,87,0.02,,,0.28,fowsr,2013-03-25 13:45:00,
2013-03-25 09:50:00,34.7,32.2,29.51,SW,225,5.4,7.6,87,0.02,,,0.28,fowsr,2013-03-25 13:50:00,
2013-03-25 09:55:00,34.7,32.2,29.50,South,180,6.9,9.8,87,0.02,,,0.28,fowsr,2013-03-25 13:55:00,
2013-03-25 10:00:00,34.7,32.2,29.50,South,180,3.8,6.0,87,0.02,,,0.29,fowsr,2013-03-25 14:00:00,
2013-03-25 10:05:00,34.7,32.2,29.50,South,180,4.5,7.6,87,0.02,,,0.29,fowsr,2013-03-25 14:05:00,
2013-03-25 10:10:00,34.7,32.2,29.50,South,180,7.6,13.0,87,0.02,,,0.29,fowsr,2013-03-25 14:10:00,
2013-03-25 10:20:00,34.7,32.2,29.50,West,270,5.4,9.8,87,0.02,,,0.29,fowsr,2013-03-25 14:20:00,
2013-03-25 10:30:00,34.7,32.2,29.50,SW,225,4.5,8.3,87,0.02,,,0.29,fowsr,2013-03-25 14:30:00,
2013-03-25 10:35:00,34.5,32.0,29.49,South,180,5.4,8.3,87,0.04,,,0.31,fowsr,2013-03-25 14:35:00,
2013-03-25 10:40:00,34.5,31.8,29.49,SSW,202,6.0,12.1,86,0.02,,,0.31,fowsr,2013-03-25 14:40:00,
2013-03-25 10:45:00,34.7,32.2,29.48,SE,135,5.4,9.2,87,0.02,,,0.31,fowsr,2013-03-25 14:45:00,
2013-03-25 10:55:00,35.1,32.6,29.48,SW,225,7.6,13.0,87,0.02,,,0.31,fowsr,2013-03-25 14:55:00,
2013-03-25 11:00:00,35.1,32.6,29.47,South,180,5.4,10.7,87,0.02,,,0.31,fowsr,2013-03-25 15:00:00,
2013-03-25 11:10:00,35.1,32.4,29.47,South,180,4.5,7.6,86,0.02,,,0.32,fowsr,2013-03-25 15:10:00,
2013-03-25 11:15:00,34.9,32.2,29.47,South,180,8.3,13.0,86,0.02,,,0.32,fowsr,2013-03-25 15:15:00,
2013-03-25 11:20:00,34.9,32.2,29.47,South,180,12.1,21.3,86,0.04,,,0.33,fowsr,2013-03-25 15:20:00,
2013-03-25 11:25:00,34.9,32.2,29.47,South,180,7.6,11.4,86,0.04,,,0.33,fowsr,2013-03-25 15:25:00,
2013-03-25 11:30:00,34.9,32.2,29.47,South,180,9.2,13.6,86,0.05,,,0.34,fowsr,2013-03-25 15:30:00,
2013-03-25 11:35:00,34.9,32.2,29.46,West,270,9.2,11.4,86,0.05,,,0.34,fowsr,2013-03-25 15:35:00,
2013-03-25 11:40:00,34.9,32.2,29.46,WNW,292,6.9,10.7,86,0.05,,,0.35,fowsr,2013-03-25 15:40:00,
2013-03-25 11:45:00,34.9,32.2,29.46,SW,225,11.4,15.2,86,0.05,,,0.35,fowsr,2013-03-25 15:45:00,
2013-03-25 11:50:00,35.2,32.5,29.45,SW,225,7.6,12.1,86,0.06,,,0.37,fowsr,2013-03-25 15:50:00,
2013-03-25 12:00:00,35.4,32.7,29.45,SW,225,4.5,7.6,86,0.06,,,0.37,fowsr,2013-03-25 16:00:00,
2013-03-25 12:05:00,35.8,33.1,29.46,SW,225,6.9,9.8,86,0.06,,,0.37,fowsr,2013-03-25 16:05:00,
2013-03-25 12:10:00,35.8,33.1,29.46,South,180,5.4,7.6,86,0.07,,,0.38,fowsr,2013-03-25 16:10:00,
2013-03-25 12:15:00,35.8,32.9,29.45,SW,225,6.9,9.8,85,0.06,,,0.38,fowsr,2013-03-25 16:15:00,
2013-03-25 12:25:00,35.8,32.9,29.45,NW,315,15.2,19.0,85,0.06,,,0.39,fowsr,2013-03-25 16:25:00,
2013-03-25 12:30:00,36.0,33.0,29.45,SW,225,6.0,12.1,85,0.06,,,0.39,fowsr,2013-03-25 16:30:00,
2013-03-25 12:40:00,36.0,33.0,29.46,SW,225,2.2,3.8,85,0.05,,,0.39,fowsr,2013-03-25 16:40:00,
2013-03-25 12:45:00,36.0,33.0,29.46,South,180,4.5,9.8,85,0.04,,,0.39,fowsr,2013-03-25 16:45:00,
2013-03-25 12:50:00,36.0,33.0,29.46,South,180,3.8,6.9,85,0.04,,,0.39,fowsr,2013-03-25 16:50:00,
2013-03-25 12:55:00,36.1,33.2,29.46,SW,225,4.5,8.3,85,0.02,,,0.39,fowsr,2013-03-25 16:55:00,
2013-03-25 13:05:00,36.1,33.2,29.46,SSW,202,6.0,10.7,85,0.04,,,0.40,fowsr,2013-03-25 17:05:00,
2013-03-25 13:10:00,36.1,33.0,29.46,SW,225,5.4,7.6,84,0.02,,,0.40,fowsr,2013-03-25 17:10:00,
2013-03-25 13:15:00,36.0,32.8,29.46,WSW,247,5.4,9.2,84,0.02,,,0.40,fowsr,2013-03-25 17:15:00,
2013-03-25 13:20:00,36.0,32.8,29.46,South,180,6.9,11.4,84,0.04,,,0.41,fowsr,2013-03-25 17:20:00,
2013-03-25 13:25:00,36.1,33.2,29.46,SW,225,3.8,6.0,85,0.04,,,0.41,fowsr,2013-03-25 17:25:00,
2013-03-25 13:30:00,36.1,33.2,29.46,SW,225,4.5,9.2,85,0.04,,,0.43,fowsr,2013-03-25 17:30:00,
2013-03-25 13:35:00,35.8,32.6,29.46,SW,225,9.2,15.9,84,0.04,,,0.43,fowsr,2013-03-25 17:35:00,
2013-03-25 13:45:00,36.1,33.2,29.46,SW,225,7.6,11.4,85,0.05,,,0.44,fowsr,2013-03-25 17:45:00,
2013-03-25 13:50:00,36.0,32.8,29.46,SE,135,4.5,7.6,84,0.05,,,0.44,fowsr,2013-03-25 17:50:00,
2013-03-25 13:55:00,36.1,33.2,29.46,SSW,202,3.1,6.0,85,0.05,,,0.44,fowsr,2013-03-25 17:55:00,
2013-03-25 14:05:00,36.0,32.8,29.46,South,180,6.0,9.2,84,0.06,,,0.45,fowsr,2013-03-25 18:05:00,
2013-03-25 14:10:00,36.0,33.0,29.45,South,180,3.8,11.4,85,0.05,,,0.45,fowsr,2013-03-25 18:10:00,
2013-03-25 14:15:00,36.1,33.2,29.46,SW,225,7.6,12.1,85,0.06,,,0.46,fowsr,2013-03-25 18:15:00,
2013-03-25 14:20:00,36.1,33.2,29.46,SW,225,7.6,10.7,85,0.05,,,0.46,fowsr,2013-03-25 18:20:00,
2013-03-25 14:25:00,36.0,33.0,29.46,NE,45,3.1,5.4,85,0.05,,,0.46,fowsr,2013-03-25 18:25:00,
2013-03-25 14:30:00,36.0,33.0,29.46,SW,225,3.8,6.0,85,0.05,,,0.46,fowsr,2013-03-25 18:30:00,
2013-03-25 14:35:00,36.1,33.2,29.46,South,180,9.8,13.0,85,0.04,,,0.46,fowsr,2013-03-25 18:35:00,
2013-03-25 14:40:00,35.8,32.9,29.46,NNW,337,3.1,6.0,85,0.04,,,0.46,fowsr,2013-03-25 18:40:00,
2013-03-25 14:45:00,35.4,32.5,29.46,SW,225,6.9,11.4,85,0.04,,,0.47,fowsr,2013-03-25 18:45:00,
2013-03-25 14:55:00,35.2,32.5,29.46,North,0,3.1,3.8,86,0.04,,,0.47,fowsr,2013-03-25 18:55:00,
2013-03-25 15:00:00,35.2,32.5,29.47,SSW,202,3.1,4.5,86,0.02,,,0.47,fowsr,2013-03-25 19:00:00,
2013-03-25 15:10:00,34.7,31.8,29.47,NW,315,2.2,3.8,85,0.04,,,0.48,fowsr,2013-03-25 19:10:00,
2013-03-25 15:15:00,34.5,31.6,29.47,SSW,202,1.6,3.8,85,0.04,,,0.48,fowsr,2013-03-25 19:15:00,
2013-03-25 15:20:00,34.3,31.4,29.47,SSE,157,1.6,3.8,85,0.02,,,0.48,fowsr,2013-03-25 19:20:00,
2013-03-25 15:25:00,34.2,31.3,29.47,SW,225,1.6,4.5,85,0.02,,,0.48,fowsr,2013-03-25 19:25:00,
2013-03-25 15:30:00,34.2,31.3,29.47,South,180,1.6,4.5,85,0.04,,,0.50,fowsr,2013-03-25 19:30:00,
2013-03-25 15:35:00,34.0,31.1,29.47,East,90,3.1,6.9,85,0.04,,,0.50,fowsr,2013-03-25 19:35:00,
2013-03-25 15:40:00,34.0,31.3,29.47,North,0,3.1,8.3,86,0.04,,,0.50,fowsr,2013-03-25 19:40:00,
2013-03-25 15:45:00,33.8,31.1,29.47,West,270,1.6,3.1,86,0.05,,,0.51,fowsr,2013-03-25 19:45:00,
2013-03-25 15:55:00,33.8,31.1,29.47,NW,315,1.6,3.1,86,0.04,,,0.51,fowsr,2013-03-25 19:55:00,
2013-03-25 16:00:00,33.8,31.1,29.47,South,180,1.6,3.8,86,0.05,,,0.52,fowsr,2013-03-25 20:00:00,
2013-03-25 16:05:00,34.0,31.3,29.47,NNW,337,2.2,9.2,86,0.06,,,0.53,fowsr,2013-03-25 20:05:00,
2013-03-25 16:10:00,34.0,31.3,29.48,ESE,112,3.1,7.6,86,0.06,,,0.53,fowsr,2013-03-25 20:10:00,
2013-03-25 16:15:00,34.0,31.3,29.48,South,180,2.2,6.0,86,0.06,,,0.54,fowsr,2013-03-25 20:15:00,
2013-03-25 16:20:00,34.0,31.3,29.48,East,90,1.6,3.1,86,0.07,,,0.56,fowsr,2013-03-25 20:20:00,
2013-03-25 16:25:00,34.3,31.9,29.48,SW,225,3.8,9.2,87,0.07,,,0.56,fowsr,2013-03-25 20:25:00,
2013-03-25 16:30:00,34.3,31.9,29.48,South,180,3.1,5.4,87,0.07,,,0.57,fowsr,2013-03-25 20:30:00,
2013-03-25 16:35:00,34.3,31.9,29.48,SW,225,3.1,7.6,87,0.07,,,0.57,fowsr,2013-03-25 20:35:00,
2013-03-25 16:40:00,34.3,31.9,29.49,SE,135,2.2,5.4,87,0.08,,,0.58,fowsr,2013-03-25 20:40:00,
2013-03-25 16:45:00,34.5,32.0,29.49,SSW,202,3.1,6.9,87,0.08,,,0.58,fowsr,2013-03-25 20:45:00,
2013-03-25 16:50:00,34.5,32.0,29.49,SSW,202,5.4,11.4,87,0.08,,,0.59,fowsr,2013-03-25 20:50:00,
2013-03-25 16:55:00,34.7,32.2,29.50,SE,135,4.5,9.8,87,0.08,,,0.59,fowsr,2013-03-25 20:55:00,
2013-03-25 17:00:00,34.7,32.2,29.50,South,180,6.9,13.0,87,0.07,,,0.59,fowsr,2013-03-25 21:00:00,
2013-03-25 17:05:00,34.7,32.2,29.50,NNE,22,4.5,8.3,87,0.08,,,0.60,fowsr,2013-03-25 21:05:00,
2013-03-25 17:10:00,34.7,32.2,29.50,South,180,3.8,6.9,87,0.07,,,0.60,fowsr,2013-03-25 21:10:00,
2013-03-25 17:20:00,34.9,32.4,29.50,South,180,9.2,13.6,87,0.06,,,0.60,fowsr,2013-03-25 21:20:00,
2013-03-25 17:25:00,34.9,32.4,29.51,SW,225,6.9,13.0,87,0.06,,,0.61,fowsr,2013-03-25 21:25:00,
2013-03-25 17:30:00,34.9,32.4,29.51,SE,135,3.8,7.6,87,0.06,,,0.61,fowsr,2013-03-25 21:30:00,
2013-03-25 17:35:00,34.9,32.4,29.51,NW,315,6.0,11.4,87,0.05,,,0.61,fowsr,2013-03-25 21:35:00,
2013-03-25 17:40:00,35.2,32.7,29.51,SW,225,3.8,10.7,87,0.04,,,0.61,fowsr,2013-03-25 21:40:00,
2013-03-25 17:45:00,35.2,32.7,29.51,SW,225,6.0,13.0,87,0.04,,,0.61,fowsr,2013-03-25 21:45:00,
2013-03-25 17:50:00,35.2,32.7,29.52,SE,135,2.2,4.5,87,0.02,,,0.61,fowsr,2013-03-25 21:50:00,
2013-03-25 17:55:00,35.2,32.7,29.52,East,90,6.9,10.7,87,0.02,,,0.61,fowsr,2013-03-25 21:55:00,
2013-03-25 18:00:00,35.2,32.7,29.52,SE,135,0.7,2.2,87,0.02,,,0.61,fowsr,2013-03-25 22:00:00,
2013-03-25 18:05:00,35.4,32.9,29.53,SE,135,1.6,3.8,87,0.02,,,0.61,fowsr,2013-03-25 22:05:00,
2013-03-25 18:10:00,35.4,32.9,29.53,NE,45,2.2,6.0,87,0.01,,,0.61,fowsr,2013-03-25 22:10:00,
2013-03-25 18:15:00,35.4,32.9,29.54,NW,315,3.1,7.6,87,0.01,,,0.61,fowsr,2013-03-25 22:15:00,
2013-03-25 18:20:00,35.4,32.9,29.54,South,180,3.1,6.0,87,0.02,,,0.63,fowsr,2013-03-25 22:20:00,
2013-03-25 18:25:00,35.4,32.9,29.55,ENE,67,3.8,6.0,87,0.02,,,0.63,fowsr,2013-03-25 22:25:00,
2013-03-25 18:30:00,35.2,32.7,29.55,SE,135,1.6,3.1,87,0.01,,,0.63,fowsr,2013-03-25 22:30:00,
2013-03-25 18:35:00,35.4,32.9,29.56,SSE,157,3.8,7.6,87,0.01,,,0.63,fowsr,2013-03-25 22:35:00,
2013-03-25 18:40:00,35.2,32.7,29.56,SE,135,4.5,5.4,87,0.01,,,0.63,fowsr,2013-03-25 22:40:00,
2013-03-25 18:45:00,35.4,32.9,29.56,South,180,3.1,4.5,87,0.01,,,0.63,fowsr,2013-03-25 22:45:00,
2013-03-25 18:50:00,35.4,32.9,29.57,NW,315,3.8,10.7,87,0.02,,,0.64,fowsr,2013-03-25 22:50:00,
2013-03-25 18:55:00,35.4,32.9,29.57,SE,135,3.1,4.5,87,0.02,,,0.64,fowsr,2013-03-25 22:55:00,
2013-03-25 19:00:00,35.4,32.9,29.57,SSW,202,4.5,6.0,87,0.02,,,0.64,fowsr,2013-03-25 23:00:00,
2013-03-25 19:05:00,35.4,32.9,29.57,South,180,3.8,9.2,87,0.02,,,0.64,fowsr,2013-03-25 23:05:00,
2013-03-25 19:10:00,35.4,32.9,29.57,East,90,3.1,6.0,87,0.02,,,0.64,fowsr,2013-03-25 23:10:00,
2013-03-25 19:15:00,35.4,32.9,29.58,East,90,2.2,3.8,87,0.02,,,0.64,fowsr,2013-03-25 23:15:00,
2013-03-25 19:20:00,35.2,32.7,29.58,South,180,3.8,4.5,87,0.04,,,0.65,fowsr,2013-03-25 23:20:00,
2013-03-25 19:30:00,35.4,32.9,29.59,NE,45,3.8,6.0,87,0.02,,,0.65,fowsr,2013-03-25 23:30:00,
2013-03-25 19:35:00,35.6,32.9,29.59,SE,135,3.8,9.2,86,0.02,,,0.65,fowsr,2013-03-25 23:35:00,
2013-03-25 19:45:00,35.8,33.1,29.59,SE,135,3.1,6.0,86,0.02,,,0.65,fowsr,2013-03-25 23:45:00,
2013-03-25 19:55:00,36.0,33.2,29.60,NE,45,3.1,6.9,86,0.02,,,0.66,fowsr,2013-03-25 23:55:00,
2013-03-25 20:00:00,36.0,33.2,29.60,East,90,2.2,9.8,86,0.02,,,0.66,fowsr,2013-03-26 00:00:00,
2013-03-25 20:05:00,36.1,33.4,29.61,NE,45,3.1,7.6,86,0.02,,,0.66,fowsr,2013-03-26 00:05:00,
2013-03-25 20:10:00,36.1,33.4,29.61,SE,135,2.2,6.9,86,0.02,,,0.66,fowsr,2013-03-26 00:10:00,
2013-03-25 20:15:00,36.1,33.4,29.61,SE,135,3.1,4.5,86,0.02,,,0.66,fowsr,2013-03-26 00:15:00,
2013-03-25 20:20:00,36.1,33.4,29.62,ENE,67,1.6,3.1,86,0.01,,,0.66,fowsr,2013-03-26 00:20:00,
2013-03-25 20:25:00,36.1,33.4,29.62,NW,315,5.4,9.8,86,0.01,,,0.66,fowsr,2013-03-26 00:25:00,
2013-03-25 20:30:00,36.3,33.6,29.62,SSW,202,2.2,4.5,86,0.01,,,0.66,fowsr,2013-03-26 00:30:00,
2013-03-25 20:35:00,36.5,33.8,29.62,SE,135,4.5,11.4,86,0.01,,,0.66,fowsr,2013-03-26 00:35:00,
2013-03-25 20:40:00,36.5,33.8,29.63,East,90,3.1,6.0,86,0.01,,,0.66,fowsr,2013-03-26 00:40:00,
2013-03-25 20:45:00,36.5,33.8,29.63,South,180,6.9,11.4,86,0.01,,,0.66,fowsr,2013-03-26 00:45:00,
2013-03-25 20:50:00,36.5,33.6,29.64,South,180,3.8,7.6,85,0.01,,,0.66,fowsr,2013-03-26 00:50:00,
2013-03-25 20:55:00,36.3,33.4,29.63,SE,135,3.8,6.9,85,0.01,,,0.67,fowsr,2013-03-26 00:55:00,
2013-03-25 21:00:00,36.3,33.4,29.64,SE,135,2.2,4.5,85,0.01,,,0.67,fowsr,2013-03-26 01:00:00,
2013-03-25 21:05:00,36.3,33.4,29.65,South,180,5.4,8.3,85,0.01,,,0.67,fowsr,2013-03-26 01:05:00,
2013-03-25 21:10:00,36.3,33.4,29.65,East,90,4.5,11.4,85,0.01,,,0.67,fowsr,2013-03-26 01:10:00,
2013-03-25 21:15:00,36.3,33.4,29.65,NE,45,3.8,6.0,85,0.01,,,0.67,fowsr,2013-03-26 01:15:00,
2013-03-25 21:20:00,36.3,33.4,29.65,East,90,5.4,9.8,85,0.01,,,0.67,fowsr,2013-03-26 01:20:00,
2013-03-25 21:25:00,36.3,33.4,29.65,South,180,4.5,6.9,85,0.02,,,0.69,fowsr,2013-03-26 01:25:00,
2013-03-25 21:30:00,36.5,33.6,29.65,NE,45,3.8,6.0,85,0.02,,,0.69,fowsr,2013-03-26 01:30:00,
2013-03-25 21:35:00,36.7,33.7,29.66,East,90,3.8,9.2,85,0.02,,,0.69,fowsr,2013-03-26 01:35:00,
2013-03-25 21:40:00,36.7,33.7,29.66,East,90,4.5,11.4,85,0.02,,,0.69,fowsr,2013-03-26 01:40:00,
2013-03-25 21:45:00,36.7,33.7,29.66,East,90,3.8,7.6,85,0.02,,,0.69,fowsr,2013-03-26 01:45:00,
2013-03-25 21:50:00,36.7,33.7,29.66,SE,135,4.5,11.4,85,0.02,,,0.69,fowsr,2013-03-26 01:50:00,
2013-03-25 21:55:00,36.7,33.7,29.66,East,90,3.8,6.0,85,0.01,,,0.69,fowsr,2013-03-26 01:55:00,
2013-03-25 22:00:00,36.7,33.7,29.67,SE,135,4.5,7.6,85,0.01,,,0.69,fowsr,2013-03-26 02:00:00,
2013-03-25 22:05:00,36.7,33.7,29.67,SE,135,6.9,14.5,85,0.01,,,0.69,fowsr,2013-03-26 02:05:00,
2013-03-25 22:10:00,36.7,33.7,29.67,East,90,4.5,9.8,85,0.01,,,0.69,fowsr,2013-03-26 02:10:00,
2013-03-25 22:15:00,36.7,33.7,29.67,NE,45,5.4,8.3,85,0.01,,,0.69,fowsr,2013-03-26 02:15:00,
2013-03-25 22:20:00,36.7,33.7,29.67,SE,135,9.2,12.1,85,0.01,,,0.69,fowsr,2013-03-26 02:20:00,
2013-03-25 22:25:00,36.7,33.7,29.67,South,180,6.9,8.3,85,0.01,,,0.69,fowsr,2013-03-26 02:25:00,
2013-03-25 22:30:00,36.7,33.7,29.67,NE,45,3.1,6.0,85,0.00,,,0.69,fowsr,2013-03-26 02:30:00,
2013-03-25 22:35:00,36.7,33.7,29.67,ESE,112,5.4,14.5,85,0.00,,,0.69,fowsr,2013-03-26 02:35:00,
2013-03-25 22:40:00,36.7,33.7,29.67,NE,45,3.8,6.0,85,0.00,,,0.69,fowsr,2013-03-26 02:40:00,
2013-03-25 22:45:00,36.7,33.7,29.67,East,90,4.5,6.0,85,0.00,,,0.69,fowsr,2013-03-26 02:45:00,
2013-03-25 22:50:00,36.7,33.7,29.67,SE,135,3.1,9.2,85,0.00,,,0.69,fowsr,2013-03-26 02:50:00,
2013-03-25 22:55:00,36.7,33.7,29.68,SE,135,4.5,7.6,85,0.00,,,0.69,fowsr,2013-03-26 02:55:00,
2013-03-25 23:00:00,36.7,33.7,29.67,East,90,3.8,12.1,85,0.00,,,0.69,fowsr,2013-03-26 03:00:00,
2013-03-25 23:05:00,36.7,33.7,29.68,SW,225,7.6,14.5,85,0.00,,,0.69,fowsr,2013-03-26 03:05:00,
2013-03-25 23:10:00,36.7,33.5,29.68,SW,225,5.4,15.2,84,0.00,,,0.69,fowsr,2013-03-26 03:10:00,
2013-03-25 23:15:00,36.5,33.3,29.68,NE,45,3.8,7.6,84,0.00,,,0.69,fowsr,2013-03-26 03:15:00,
2013-03-25 23:20:00,36.7,33.5,29.68,East,90,6.0,10.7,84,0.01,,,0.70,fowsr,2013-03-26 03:20:00,
2013-03-25 23:25:00,36.7,33.5,29.68,South,180,4.5,12.1,84,0.01,,,0.70,fowsr,2013-03-26 03:25:00,
2013-03-25 23:30:00,36.5,33.3,29.68,East,90,3.8,6.9,84,0.01,,,0.70,fowsr,2013-03-26 03:30:00,
2013-03-25 23:35:00,36.5,33.3,29.69,SE,135,6.9,13.6,84,0.01,,,0.70,fowsr,2013-03-26 03:35:00,
2013-03-25 23:40:00,36.5,33.3,29.69,East,90,4.5,7.6,84,0.01,,,0.70,fowsr,2013-03-26 03:40:00,
2013-03-25 23:45:00,36.5,33.3,29.69,SE,135,6.9,14.5,84,0.01,,,0.70,fowsr,2013-03-26 03:45:00,
2013-03-25 23:50:00,36.5,33.3,29.69,East,90,3.8,6.9,84,0.01,,,0.70,fowsr,2013-03-26 03:50:00,
2013-03-25 23:55:00,36.5,33.3,29.69,East,90,4.5,12.1,84,0.01,,,0.70,fowsr,2013-03-26 03:55:00,